Home > Weather > Moreno Valley > Past weeks

Flag for U.S.A. Weather for the Past 2 Weeks in Moreno Valley, California, U.S.A.

Now
46 °F

Clear.


Feels Like: 46 °F
Forecast: 49 / 83 °F
Wind: No wind

Location: Riverside / March Air Force Base

Current Time: Feb 14, 2016 at 1:09:44 AM

Latest Report: Feb 13, 2016 at 11:58 PM


Visibility: 9 mi

Pressure: 30.06 "Hg

Humidity: 69%

Dew point: 36 °F

Location of Moreno ValleyLocation

Historic Weather in Moreno Valley — Graph

°F

Moreno Valley Temperature Yesterday

Maximum temperature yesterday: 81 °F (at 1:58 PM)
Minimum temperature yesterday: 37 °F (at 6:58 AM)
Average temperature yesterday: 58 °F

High & Low Weather Summary for the Past Weeks

 TemperatureHumidityPressure
High85 °F (Feb 10, 1:58 PM)100% (Jan 30, 6:58 PM)30.37 "Hg (Jan 30, 6:58 PM)
Low28 °F (Feb 2, 5:58 AM)6% (Feb 12, 1:58 PM)29.59 "Hg (Jan 31, 2:58 PM)
Average56 °F42%30.12 "Hg
* Reported Jan 29 10:58 PM — Feb 13 10:58 PM, Moreno Valley, Weather by CustomWeather, © 2016

Note: Actual official high and low records may vary slightly from our data, if they occured in-between our weather recording intervals... More about our weather records

Advertising

Moreno Valley Weather History for the Previous 24 Hours

 ConditionsComfort  
Time TempWeatherWind HumidityBarometerVisibility
10:58 PM
Sat, Feb 13
48 °FClear.No wind64%30.06 "Hg9 mi
9:58 PM50 °FClear.No wind59%30.06 "Hg10 mi
8:58 PM57 °FClear.1 mph44%30.06 "Hg10 mi
7:58 PM58 °FClear.2 mph46%30.06 "Hg10 mi
6:58 PM61 °FClear.5 mph38%30.07 "Hg10 mi
5:58 PM62 °FClear.7 mph44%30.05 "Hg10 mi
4:58 PM72 °FSunny.8 mph31%30.03 "Hg10 mi
3:58 PM78 °FSunny.12 mph25%30.01 "Hg10 mi
2:58 PM80 °FSunny.10 mph19%30.01 "Hg10 mi
1:58 PM81 °FSunny.7 mph15%30.02 "Hg10 mi
12:58 PM78 °FSunny.No wind16%30.03 "Hg10 mi
11:58 AM74 °FSunny.2 mph20%30.05 "Hg10 mi
10:58 AM69 °FPassing clouds.No wind23%30.10 "Hg10 mi
9:58 AM65 °FSunny.3 mph28%30.11 "Hg10 mi
8:58 AM58 °FSunny.5 mph41%30.11 "Hg10 mi
7:58 AM49 °FSunny.No wind60%30.11 "Hg10 mi
6:58 AM37 °FSunny.No wind80%30.12 "Hg6 mi
5:58 AM38 °FClear.No wind78%30.10 "Hg8 mi
4:58 AM40 °FClear.No wind75%30.09 "Hg7 mi
3:58 AM39 °FClear.No wind78%30.08 "Hg7 mi
2:58 AM43 °FClear.No wind69%30.08 "Hg10 mi
1:58 AM42 °FClear.No wind72%30.09 "Hg8 mi
Weather by CustomWeather, © 2016

See weather overviewHow to use our weather pages